When you browse on this site, cookies collect data to enhance your experience and personalize the content and advertising you see.
Visit our Privacy Policy to learn more. By continuing to use the site, you agree to this use of cookies and data.
  • In Romania
  • List of Countries
  • For 7 days
  • Water Temperature
  • Weather Map
  • Weather Widgets
  • user-avatar
    Login

    Hourly Weather Ali Bayramli

    Today, 2 June, Tuesday

    Time Temperature Precipitation Wind Pressure Humidity
    00:00 +21°C° 0 mm 1 mps 754 mmHg 64%
    01:00 +21°C° 0 mm 1 mps 753 mmHg 65%
    02:00 +21°C° 0 mm 1 mps 753 mmHg 67%
    03:00 +20°C° 0 mm 1 mps 753 mmHg 71%
    04:00 +21°C° 0 mm 1 mps 753 mmHg 69%
    05:00 +22°C° 0 mm 1 mps 753 mmHg 67%
    06:00 +23°C° 0 mm 1 mps 753 mmHg 65%
    07:00 +25°C° 0 mm 1 mps 753 mmHg 57%
    08:00 +27°C° 0 mm 1 mps 753 mmHg 49%
    09:00 +29°C° 0 mm 2 mps 753 mmHg 40%
    10:00 +31°C° 0 mm 2 mps 753 mmHg 36%
    11:00 +34°C° 0 mm 3 mps 753 mmHg 32%
    12:00 +36°C° 0 mm 4 mps 753 mmHg 28%
    13:00 +35°C° 0 mm 5 mps 752 mmHg 30%
    14:00 +34°C° 0 mm 6 mps 751 mmHg 32%
    15:00 +33°C° 0 mm 7 mps 751 mmHg 35%
    16:00 +32°C° 0 mm 7 mps 751 mmHg 40%
    17:00 +29°C° 0 mm 6 mps 750 mmHg 46%
    18:00 +27°C° 0 mm 6 mps 750 mmHg 51%
    19:00 +26°C° 0 mm 6 mps 750 mmHg 54%
    20:00 +25°C° 0 mm 5 mps 750 mmHg 58%
    21:00 +23°C° 0 mm 5 mps 751 mmHg 61%
    22:00 +23°C° 0 mm 4 mps 750 mmHg 60%
    23:00 +23°C° 0 mm 4 mps 750 mmHg 60%

    Tomorrow, 3 June, Wednesday

    Time Temperature Precipitation Wind Pressure Humidity
    00:00 +24°C° 0 mm 3 mps 750 mmHg 60%
    01:00 +22°C° 0 mm 3 mps 750 mmHg 64%
    02:00 +21°C° 0 mm 2 mps 750 mmHg 68%
    03:00 +22°C° 0 mm 1 mps 750 mmHg 72%
    04:00 +21°C° 0 mm 2 mps 750 mmHg 69%
    05:00 +23°C° 0 mm 2 mps 750 mmHg 67%
    06:00 +24°C° 0 mm 3 mps 750 mmHg 64%
    07:00 +26°C° 0 mm 4 mps 750 mmHg 56%
    08:00 +29°C° 0 mm 6 mps 750 mmHg 48%
    09:00 +32°C° 0 mm 8 mps 750 mmHg 40%
    10:00 +35°C° 0 mm 8 mps 750 mmHg 35%
    11:00 +38°C° 0 mm 8 mps 749 mmHg 30%
    12:00 +40°C° 0 mm 8 mps 749 mmHg 25%
    13:00 +41°C° 0 mm 7 mps 749 mmHg 21%
    14:00 +42°C° 0 mm 6 mps 749 mmHg 16%
    15:00 +43°C° 0 mm 5 mps 749 mmHg 12%
    16:00 +40°C° 0 mm 6 mps 749 mmHg 19%
    17:00 +36°C° 0 mm 7 mps 749 mmHg 27%
    18:00 +33°C° 0 mm 7 mps 750 mmHg 35%
    19:00 +30°C° 0 mm 6 mps 751 mmHg 40%
    20:00 +29°C° 0 mm 4 mps 752 mmHg 44%
    21:00 +27°C° 0 mm 2 mps 753 mmHg 49%
    22:00 +27°C° 0 mm 2 mps 753 mmHg 51%
    23:00 +26°C° 0 mm 2 mps 753 mmHg 54%

    Day after tomorrow, 4 June, Thursday

    Time Temperature Precipitation Wind Pressure Humidity
    00:00 +25°C° 0 mm 2 mps 753 mmHg 56%
    01:00 +25°C° 0 mm 2 mps 753 mmHg 58%
    02:00 +24°C° 0 mm 2 mps 753 mmHg 60%
    03:00 +24°C° 0 mm 1 mps 753 mmHg 61%
    04:00 +25°C° 0 mm 1 mps 754 mmHg 58%
    05:00 +25°C° 0 mm 1 mps 754 mmHg 55%
    06:00 +26°C° 0 mm 1 mps 755 mmHg 52%
    07:00 +28°C° 0 mm 2 mps 755 mmHg 48%
    08:00 +30°C° 0 mm 3 mps 755 mmHg 44%
    09:00 +32°C° 0 mm 4 mps 756 mmHg 40%
    10:00 +33°C° 0 mm 5 mps 756 mmHg 38%
    11:00 +35°C° 0 mm 6 mps 756 mmHg 36%
    12:00 +36°C° 0 mm 6 mps 756 mmHg 33%
    13:00 +35°C° 0 mm 8 mps 755 mmHg 35%
    14:00 +34°C° 0 mm 9 mps 755 mmHg 36%
    15:00 +33°C° 0 mm 10 mps 755 mmHg 38%
    16:00 +32°C° 0 mm 9 mps 755 mmHg 40%
    17:00 +29°C° 0 mm 9 mps 755 mmHg 42%
    18:00 +28°C° 0 mm 8 mps 755 mmHg 43%
    19:00 +27°C° 0 mm 7 mps 756 mmHg 46%
    20:00 +26°C° 0 mm 6 mps 756 mmHg 48%
    21:00 +25°C° 0 mm 5 mps 756 mmHg 51%
    22:00 +23°C° 0 mm 4 mps 756 mmHg 54%
    23:00 +24°C° 0 mm 3 mps 756 mmHg 58%

    5 June, Friday

    Time Temperature Precipitation Wind Pressure Humidity
    00:00 +23°C° 0 mm 2 mps 756 mmHg 61%
    01:00 +21°C° 0 mm 2 mps 756 mmHg 65%
    02:00 +22°C° 0 mm 1 mps 756 mmHg 68%
    03:00 +21°C° 0 mm 1 mps 756 mmHg 71%
    04:00 +22°C° 0 mm 1 mps 756 mmHg 68%
    05:00 +23°C° 0 mm 2 mps 757 mmHg 64%
    06:00 +22°C° 0 mm 3 mps 757 mmHg 61%
    07:00 +25°C° 0 mm 3 mps 757 mmHg 55%
    08:00 +27°C° 0 mm 3 mps 758 mmHg 49%
    09:00 +29°C° 0 mm 4 mps 758 mmHg 42%
    10:00 +31°C° 0 mm 3 mps 758 mmHg 39%
    11:00 +33°C° 0 mm 3 mps 758 mmHg 35%
    12:00 +34°C° 0 mm 2 mps 758 mmHg 32%
    13:00 +34°C° 0 mm 4 mps 758 mmHg 31%
    14:00 +34°C° 0 mm 6 mps 758 mmHg 29%
    15:00 +34°C° 0 mm 8 mps 757 mmHg 28%
    16:00 +33°C° 0 mm 8 mps 758 mmHg 31%
    17:00 +31°C° 0 mm 9 mps 758 mmHg 35%
    18:00 +29°C° 0 mm 9 mps 758 mmHg 38%
    19:00 +28°C° 0 mm 8 mps 759 mmHg 41%
    20:00 +27°C° 0 mm 7 mps 760 mmHg 44%
    21:00 +26°C° 0 mm 6 mps 760 mmHg 47%
    22:00 +26°C° 0 mm 6 mps 760 mmHg 48%
    23:00 +25°C° 0 mm 5 mps 761 mmHg 50%

    6 June, Saturday

    Time Temperature Precipitation Wind Pressure Humidity
    00:00 +25°C° 0 mm 5 mps 761 mmHg 51%
    01:00 +23°C° 0 mm 4 mps 761 mmHg 54%
    02:00 +24°C° 0 mm 3 mps 761 mmHg 56%
    03:00 +22°C° 0 mm 3 mps 761 mmHg 59%
    04:00 +22°C° 0 mm 3 mps 762 mmHg 58%
    05:00 +24°C° 0 mm 2 mps 762 mmHg 57%
    06:00 +24°C° 0 mm 2 mps 762 mmHg 56%
    07:00 +26°C° 0 mm 2 mps 762 mmHg 51%
    08:00 +27°C° 0 mm 2 mps 762 mmHg 45%
    09:00 +29°C° 0 mm 2 mps 762 mmHg 40%
    10:00 +30°C° 0 mm 3 mps 762 mmHg 36%
    11:00 +31°C° 0 mm 3 mps 762 mmHg 33%
    12:00 +33°C° 0 mm 4 mps 762 mmHg 30%
    13:00 +33°C° 0 mm 5 mps 762 mmHg 29%
    14:00 +33°C° 0 mm 6 mps 761 mmHg 29%
    15:00 +33°C° 0 mm 7 mps 761 mmHg 29%
    16:00 +32°C° 0 mm 7 mps 761 mmHg 32%
    17:00 +30°C° 0 mm 7 mps 761 mmHg 34%
    18:00 +28°C° 0 mm 7 mps 761 mmHg 37%
    19:00 +27°C° 0 mm 6 mps 761 mmHg 40%
    20:00 +26°C° 0 mm 5 mps 761 mmHg 44%
    21:00 +25°C° 0 mm 4 mps 762 mmHg 47%
    22:00 +24°C° 0 mm 3 mps 762 mmHg 50%
    23:00 +24°C° 0 mm 3 mps 762 mmHg 54%

    7 June, Sunday

    Time Temperature Precipitation Wind Pressure Humidity
    00:00 +23°C° 0 mm 2 mps 762 mmHg 57%
    01:00 +21°C° 0 mm 2 mps 762 mmHg 60%
    02:00 +22°C° 0 mm 1 mps 761 mmHg 63%
    03:00 +21°C° 0 mm 1 mps 761 mmHg 66%
    04:00 +22°C° 0 mm 1 mps 761 mmHg 63%
    05:00 +22°C° 0 mm 1 mps 762 mmHg 60%
    06:00 +21°C° 0 mm 0 mps 762 mmHg 56%
    07:00 +25°C° 0 mm 1 mps 762 mmHg 50%
    08:00 +26°C° 0 mm 1 mps 762 mmHg 44%
    09:00 +28°C° 0 mm 1 mps 762 mmHg 37%
    10:00 +29°C° 0 mm 2 mps 762 mmHg 33%
    11:00 +31°C° 0 mm 2 mps 761 mmHg 30%
    12:00 +32°C° 0 mm 2 mps 761 mmHg 26%
    13:00 +33°C° 0 mm 4 mps 761 mmHg 25%
    14:00 +33°C° 0 mm 5 mps 761 mmHg 24%
    15:00 +33°C° 0 mm 7 mps 760 mmHg 24%
    16:00 +32°C° 0 mm 6 mps 760 mmHg 25%
    17:00 +30°C° 0 mm 6 mps 760 mmHg 26%
    18:00 +29°C° 0 mm 6 mps 760 mmHg 27%
    19:00 +28°C° 0 mm 5 mps 760 mmHg 32%
    20:00 +26°C° 0 mm 4 mps 760 mmHg 37%
    21:00 +25°C° 0 mm 3 mps 760 mmHg 41%
    22:00 +24°C° 0 mm 2 mps 760 mmHg 44%
    23:00 +23°C° 0 mm 2 mps 760 mmHg 46%
    Show more